Location: Newark
(51.2625°N, 13.3939°E)
Time: 07:15:32
(UTC+00:00)

Explorer 7 - Pass Details

Date: 18 November 2019
Orbit: 485 x 679 km, 50.3° (Epoch: 15 December)

Event Time Altitude Azimuth Distance (km) Brightness Sun altitude
Rises 02:20:59 0° 266° (W) 2,853 - -38.1°
Reaches altitude 10° 02:23:21 10° 265° (W) 1,916 - -37.7°
Maximum altitude 02:27:43 80° 178° (S) 575 - -37.1°
Exits shadow 02:31:44 11° 93° (E) 1,764 10.1 -36.5°
Drops below altitude 10° 02:31:48 10° 93° (E) 1,794 10.1 -36.4°
Sets 02:33:57 0° 92° (E) 2,655 11.2 -36.1°
